Location: Street
(51.1247°N, 2.7429°W)
Time: 23:25:49
(UTC+00:00)

ZACube-1 - Visible Passes

Search period start: 22 March 2023 00:00
Search period end: 01 April 2023 01:00
Orbit: 578 x 654 km, 97.7° (Epoch: 21 March)

Date Brightness Start Highest point End Pass type
(mag) Time Alt. Az. Time Alt. Az. Time Alt. Az.
22 Mar ? 02:35:25 10° NE 02:38:22 18° E 02:39:11 17° ESE visible
22 Mar ? 04:10:33 10° N 04:14:51 60° WNW 04:16:17 38° SW visible
23 Mar ? 02:51:03 10° NE 02:54:36 24° E 02:55:33 22° ESE visible
23 Mar ? 04:26:44 10° N 04:30:50 42° WNW 04:32:38 27° WSW visible
24 Mar ? 03:06:50 10° NNE 03:10:47 34° E 03:11:54 29° SE visible
24 Mar ? 04:42:59 10° N 04:46:48 31° WNW 04:49:00 19° WSW visible
25 Mar ? 03:22:43 10° NNE 03:26:56 48° E 03:28:15 35° SSE visible
25 Mar ? 04:59:19 10° N 05:02:42 23° WNW 05:05:20 13° WSW visible
26 Mar ? 04:38:42 10° NNE 04:43:01 69° ESE 04:44:35 37° S visible
26 Mar ? 06:15:46 10° NNW 06:18:34 17° WNW 06:21:19 10° W visible
27 Mar ? 03:20:30 10° ENE 03:22:21 12° E 03:23:49 11° ESE visible
27 Mar ? 04:54:44 10° NNE 04:59:02 83° WNW 05:00:54 33° SSW visible
28 Mar ? 03:35:41 10° NE 03:38:34 17° E 03:40:08 15° ESE visible
28 Mar ? 05:10:49 10° N 05:15:02 58° WNW 05:17:14 26° SW visible
29 Mar ? 03:51:15 10° NE 03:54:44 24° E 03:56:26 19° SE visible
29 Mar ? 05:26:57 10° N 05:30:59 41° WNW 05:33:31 19° SW visible
30 Mar ? 04:06:59 10° NNE 04:10:52 34° E 04:12:44 23° SE visible
30 Mar ? 05:43:09 10° N 05:46:52 30° WNW 05:49:49 14° WSW visible
31 Mar ? 04:22:49 10° NNE 04:26:56 48° E 04:29:01 25° SSE visible
31 Mar ? 05:59:26 10° N 06:02:44 22° WNW 06:05:57 10° WSW visible
